Regional Weather Roundup
Issued by NWS Charleston, SC

Current Version | Previous Version | Graphics & Text | Print | Product List | Glossary On
Versions: 1 2 3 4 5 6 7 8 9 10 11 12 13 14 15 16 17 18 19 20 21 22 23 24 25 26 27 28 29 30 31 32 33 34 35 36 37 38 39 40 41 42 43 44 45 46 47 48 49 50
000 ASUS42 KCHS 290512 RWRCHS REGIONAL WEATHER ROUNDUP NATIONAL WEATHER SERVICE CHARLESTON SC 100 AM EDT THU JUN 29 2017 NOTE: "FAIR" INDICATES FEW OR NO CLOUDS BELOW 12,000 FEET WITH NO SIGNIFICANT WEATHER AND/OR OBSTRUCTIONS TO VISIBILITY. NOT ALL STATIONS ARE QUALITY CONTROLLED. USE DATA WITH CAUTION... ESPECIALLY DEWPOINT OBSERVATIONS. SCZ027-030-031-034>040-042>050-290600- ...SOUTHEAST SOUTH CAROLINA... CITY SKY/WX TMP DP RH WIND PRES REMARKS N CHARLESTON CLEAR 69 65 86 E3 30.17F WATERFRONT PRK N/A 80 70 71 E13 30.16F JOHNS ISLAND FAIR 79 66 65 E8 30.17F PINOPOLIS N/A 73 64 73 CALM 30.11F MONCKS CORNER FAIR 66 63 88 CALM 30.18F SUMMERVILLE FAIR 66 63 88 CALM 30.19F BEAUFORT MCAS CLEAR 79 70 74 E7 30.17S BEAUFORT ARPT FAIR 77 68 73 E7 30.16F HILTON HEAD IS PTCLDY 81 72 74 VRB7G15 30.17F WALTERBORO PTCLDY 68 61 77 CALM 30.19S ALLENDALE FAIR 73 64 73 CALM 30.16F ...SOUTHERN MIDLANDS AND PEE DEE... CITY SKY/WX TMP DP RH WIND PRES REMARKS GEORGETOWN FAIR 64 64 100 CALM 30.20F KINGSTREE FAIR 64 61 88 CALM 30.19S ORANGEBURG CLEAR 69 61 75 CALM 30.19S BARNWELL FAIR 73 66 78 SE6 30.18F AIKEN FAIR 70 63 78 SE3 30.22F MANNING FAIR 64 63 94 S6 30.19F COLUMBIA PTCLDY 76 57 51 S9 30.17S SUMTER PTCLDY 69 59 69 CALM 30.17S FLORENCE CLEAR 67 62 84 CALM 30.19F MYRTLE BEACH CLEAR 75 61 61 SE8 30.20F N MYRTLE BEACH CLEAR 77 59 53 SE5 30.19F $$ GAZ063-065-086>088-099>101-113>116-118-119-134>141-150-290600- ...SOUTHEAST GEORGIA... CITY SKY/WX TMP DP RH WIND PRES REMARKS SAVANNAH ARPT MOCLDY 77 70 79 E6 30.15F HUNTER AAF CLOUDY 79 72 79 E8 30.13F FORT STEWART CLOUDY 73 70 89 NE3 30.13F STATESBORO PTCLDY 75 71 88 E3 30.16F SYLVANIA CLEAR 73 68 84 E3 30.18F CLAXTON FAIR 72 70 94 CALM 30.16F ...CSRA...CENTRAL AND FAR SOUTHEAST GEORGIA... CITY SKY/WX TMP DP RH WIND PRES REMARKS THOMSON CLEAR 73 65 76 S7 30.22S AUGUSTA-BUSH CLEAR 73 66 78 SE5 30.16S AUGUSTA-DANIEL CLEAR 75 63 66 SE6 30.18S SWAINSBORO FAIR 73 70 88 E6 30.17F VIDALIA CLOUDY 73 70 88 E3 30.16F EASTMAN CLOUDY 77 60 55 SE6 30.17F HAZLEHURST FAIR 76 71 85 CALM 30.14F ALMA PTCLDY 74 70 87 CALM 30.14F WAYCROSS CLEAR 76 76 100 NE3 30.13F JESUP FAIR 73 70 88 CALM 30.14F BAXLEY FAIR 73 73 100 E3 30.14F BRUNSWICK MOCLDY 75 75 100 CALM 30.14F SAINT SIMONS LGT RAIN 78 75 90 E8 30.13F $$ SCZ027-028-034-036>038-045-046-048>050-GAZ119-141-290600- ...LAKE AND SUPPLEMENTAL COASTAL OBSERVATIONS... STATION/POSITION TIME TEMP WIND PRES WAVE SWELL AIR SEA DIR/SP/G HT/PER HT/PER/DIR (UTC) (F) (DEG/KT/KT) (MB) (FT/S) (FT/S/D) WINYAH BAY 0345 79 110/ 9 1022.0 LAKE MURRAY 0420 78 160/ 13/ 16 1020.7R ACE BASIN NERRS 0345 74 CALM 1022.0 FORT PULASKI 0448 81 83 120/ 13/ 17 1021.6F SAPELO ISLAND 0400 80 100/ 7 1021.0 $$ ANZ835-935-AMZ111-154-330-350-352-354-370-450-454-472-290600- ...C-MAN AND BUOY OBSERVATIONS... STATION/POSITION TIME TEMP WIND PRES WAVE SWELL AIR SEA DIR/SP/G HT/PER HT/PER/DIR (UTC) (F) (DEG/KT/KT) (MB) (FT/S) (FT/S/D) BUOY 41004 0450 81 81 90/ 12/ 16 1021.0F 4/ 5 2/ 90/ 9 BUOY 41008 0350 81 82 90/ 14/ 16 1020.4 4/ 5 2/ 80/ 6 FOLLY BEACH CMAN 0500 81 100/ 14/ 16 1022.2F CAPERS NEARSHORE 0408 86 83 110/ 14/ 17 1021.6 FRIPP NEARSHORE 0408 81 83 110/ 16/ 19 1020.9S STATION/POSITION TIME TEMP WIND PRES WAVE SWELL AIR SEA DIR/SP/G HT/PER HT/PER/DIR (UTC) (F) (DEG/KT/KT) (MB) (FT/S) (FT/S/D) 5E ST. MARYS GA 0430 81 N/A 4/ 5 FRYING PAN BUOY 0450 78 79 50/ 6/ 8 1021.6F 2/ 6 2/110/ 6 BUOY 41025 0450 79 83 120/ 2/ 6 1022.6R 2/ 6 2/ 30/ 6 CAPE LOOKOUT NC 0500 78 40/ 4/ 5 1022.2S BUOY 41002 0350 80 80 70/ 14/ 16 1020.7 4/ 5 2/120/ 8 BUOY 41010 0450 81 83 90/ 10/ 12 1019.0F 3/ 8 2/130/ 8 ST AUGUSTINE FL 0500 80 80 150/ 6/ 7 1019.6F $$

USA.gov is the U.S. government's official web portal to all federal, state and local government web resources and services.